Regional Weather Roundup
Issued by NWS

Home | Current Version | Previous Version | Graphics & Text | Print | Product List | Glossary On
Versions: 1 2 3 4 5 6 7 8 9 10 11 12 13 14 15 16 17 18 19 20 21 22 23 24 25 26 27 28 29 30 31 32 33 34 35 36 37 38 39 40 41 42 43 44 45 46 47 48 49 50
000
ASUS45 KBOI 230610
RWRID
WEATHER ROUNDUP FOR IDAHO
NATIONAL WEATHER SERVICE BOISE ID
1100 PM MST SAT NOV 22 2014

NOTE: "FAIR" INDICATES FEW OR NO CLOUDS BELOW 12000 FEET
WITH NO SIGNIFICANT WEATHER AND/OR OBSTRUCTIONS TO VISIBILITY

IDZ012-014-230700-
SOUTHWEST IDAHO


CITY           SKY/WX    TMP DP  RH WIND       PRES   REMARKS
BOISE          PTCLDY    39  30  70 W12       30.04R WCI  32
CALDWELL       NOT AVBL
MOUNTAIN HOME  MOCLDY    37  35  94 NW10      30.04R WCI  29
$$

IDZ016-017-230700-
SOUTHCENTRAL IDAHO


CITY           SKY/WX    TMP DP  RH WIND       PRES   REMARKS
BURLEY         LGT RAIN  35  28  75 W22G32    29.93R WCI  23
JEROME         MOCLDY    34  30  85 SW20      29.96R WCI  23
TWIN FALLS     CLOUDY    37  28  70 SW24G32   29.98R WCI  26
$$

IDZ019>023-230700-
SOUTHEAST IDAHO


CITY           SKY/WX    TMP DP  RH WIND       PRES   REMARKS
IDAHO FALLS    CLOUDY    33  29  85 S18       29.81R WCI  22
POCATELLO      CLOUDY    34  33  96 SW24G32   29.87R WCI  21
REXBURG        CLOUDY    32  28  85 SW13      29.80R WCI  22
$$

IDZ006-010-011-018-031-032-230700-
CENTRAL IDAHO MOUNTAINS


CITY           SKY/WX    TMP DP  RH WIND       PRES   REMARKS
MCCALL         FLURRIES  29  23  78 W8        29.92R WCI  21
HAILEY         PTCLDY    27  25  93 CALM      29.87R
STANLEY          N/A     26  22  84 CALM      29.87R
SALMON         CLOUDY    34  27  75 N10G17    29.84R WCI  26
CHALLIS        CLOUDY    30  22  72 N3        29.82R
$$

IDZ002-004-006-007-026-230700-
NORTHERN IDAHO


CITY           SKY/WX    TMP DP  RH WIND       PRES   REMARKS
LEWISTON       MOCLDY    43  33  68 SW6       30.00R
LOWELL           N/A     35  34  96 CALM      30.03R
COEUR D`ALENE  CLOUDY    36  30  80 W7        29.91R WCI  30
MULLAN PASS    CLOUDY    24  23  96 NW7       29.79R FOG     WCI  16
$$


USA.gov is the U.S. government's official web portal to all federal, state and local government web resources and services.